sat.trackr.live / text

‹ back to catalog

STARLINK-2756

NORAD 48683 · 2021-044AX

PAYLOAD ACTIVE UNKNOWN

§ Identity

Operator
Country
US
Launch date
2021-05-26
Launch site
AFETR
Launch vehicle
Mass (kg)
RCS (m²)

Purposes: comms

External: N2YO · Heavens-Above · Gunter

§ Orbital elements

Epoch: 2026-05-25T01:28:55.816896Z

Period
94.01 min
Inclination
53.1610°
Eccentricity
0.0001228
Mean motion
15.31710340 rev/d
Perigee alt
469.9 km
Apogee alt
471.6 km
Semi-major
6,848.8 km
B*
2.2819e-4
RAAN
69.9909°
Arg perigee
86.8382°
Mean anomaly
273.2760°
Rev number
27,620

§ Raw data

STARLINK-27561 48683U 21044AX  26145.06175714  .00006725  00000+0  22819-3 0  99932 48683  53.1610  69.9909 0001228  86.8382 273.2760 15.31710340276206

JSON: /api/v1/satellites/48683 · /tle

For live sub-satellite position, see the globe view (requires WebGL).

§ Visibility from observer

Set your observer location to see the next 7 days of passes ≥ 10°. The values pass through the URL so the page stays shareable.

No JS? Fill the form by hand. The geolocation button needs JavaScript.